Location: An Tulaigh
(53.1928°N, 8.1647°W)
Time: 23:47:05
(UTC+00:00)

Helios 1B rocket - Pass Details

Date: 15 May 2026
Orbit: 458 x 465 km, 98.2° (Epoch: 11 June)

Event Time Altitude Azimuth Distance (km) Brightness Sun altitude
Exits shadow 23:00:02 31° 144° (SE) 845 2.7 -15.2°
Maximum altitude 23:01:31 66° 72° (ENE) 521 2.1 -15.3°
Drops below altitude 10° 23:05:01 10° 350° (N) 1,645 6.1 -15.5°
Sets 23:07:05 0° 347° (NNW) 2,526 7.5 -15.6°
